Regional Weather Roundup
Issued by NWS

Home | Current Version | Previous Version | Text Only | Print | Product List | Glossary On
Versions: 1 2 3 4 5 6 7 8 9 10 11 12 13 14 15 16 17 18 19 20 21 22 23 24 25 26 27 28 29 30 31 32 33 34 35 36 37 38 39 40 41 42 43 44 45 46 47 48 49 50
000
ASUS44 KBMX 020010
RWRAL

ALABAMA REGIONAL WEATHER ROUNDUP
NATIONAL WEATHER SERVICE BIRMINGHAM AL
700 PM CDT WED OCT 01 2014

NOTE: "FAIR" INDICATES FEW OR NO CLOUDS BELOW 12,000 FEET
WITH NO SIGNIFICANT WEATHER AND/OR OBSTRUCTIONS TO VISIBILITY.

THE REMARK "TC" DENOTES TEMPERATURE IN DEGREES CELSIUS.

ALZ001>011-014-016>018-020-020100-
NORTH ALABAMA

CITY           SKY/WX    TMP DP  RH WIND       PRES   REMARKS
MUSCLE SHOALS  CLEAR     73  58  59 CALM      29.94R
6HR MIN TEMP:  73; 6HR MAX TEMP:  90;

HUNTSVILLE     PTCLDY    78  57  48 SE7       29.94R
6HR MIN TEMP:  78; 6HR MAX TEMP:  89;

DECATUR        CLEAR     76  57  51 SE5       29.94S
6HR MIN TEMP:  76; 6HR MAX TEMP:  90;

HALEYVILLE     FAIR      73  62  68 CALM      29.97S
6HR MIN TEMP:  73; 6HR MAX TEMP:  87;

GADSDEN        CLEAR     75  57  53 CALM      29.95S
6HR MIN TEMP:  75; 6HR MAX TEMP:  88;

$$

ALZ012-013-022-023-030>036-040>044-020100-
WEST CENTRAL ALABAMA

CITY           SKY/WX    TMP DP  RH WIND       PRES   REMARKS
TUSCALOOSA     CLEAR     80  62  54 S3        29.92S
6HR MIN TEMP:  80; 6HR MAX TEMP:  89;

$$

ALZ015-024>027-033>036-040>044-020100-
CENTRAL ALABAMA

CITY           SKY/WX    TMP DP  RH WIND       PRES   REMARKS
BIRMINGHAM     PTCLDY    80  57  45 E3        29.96S
6HR MIN TEMP:  80; 6HR MAX TEMP:  88;

MONTGOMERY     PTCLDY    79  64  60 CALM      29.95R
6HR MIN TEMP:  78; 6HR MAX TEMP:  88;

SHELBY CO ARPT PTCLDY    76  63  64 CALM      29.95S
6HR MIN TEMP:  76; 6HR MAX TEMP:  86;

MAXWELL AFB    PTCLDY    77  64  64 S3        29.95R
6HR MIN TEMP:  77; 6HR MAX TEMP:  87;

GREENVILLE     FAIR      74  66  76 CALM      29.96R
6HR MIN TEMP:  74; 6HR MAX TEMP:  86;

$$

ALZ019-021-028-029-037-038-045>048-020100-
EAST CENTRAL ALABAMA

CITY           SKY/WX    TMP DP  RH WIND       PRES   REMARKS
ANNISTON       CLEAR     73  62  68 CALM      29.96R
6HR MIN TEMP:  73; 6HR MAX TEMP:  87;

ALEXANDER CITY CLEAR     75  69  80 CALM      29.97S
6HR MIN TEMP:  75; 6HR MAX TEMP:  89;

AUBURN         PTCLDY    73  63  68 S3        30.01S
6HR MIN TEMP:  73; 6HR MAX TEMP:  82;

$$

ALZ051>064-020100-
SOUTHWEST ALABAMA

CITY           SKY/WX    TMP DP  RH WIND       PRES   REMARKS
MOBILE         PTCLDY    76  73  91 SE7       29.94R
6HR MIN TEMP:  76; 6HR MAX TEMP:  84;

BROOKLEY FIELD PTCLDY    79  73  82 S6        29.95R
6HR MIN TEMP:  78; 6HR MAX TEMP:  83;

EVERGREEN      PTCLDY    75  67  76 CALM      29.95R
6HR MIN TEMP:  75; 6HR MAX TEMP:  88;

$$

ALZ049-050-065>069-020100-
SOUTHEAST ALABAMA

CITY           SKY/WX    TMP DP  RH WIND       PRES   REMARKS
DOTHAN         MOCLDY    75  67  76 CALM      30.00R
6HR MIN TEMP:  75; 6HR MAX TEMP:  85;

OZARK          CLOUDY    79  65  60 E2        29.96R
6HR MIN TEMP:  79; 6HR MAX TEMP:  85;

TROY           PTCLDY    73  66  78 CALM      29.97R
6HR MIN TEMP:  73; 6HR MAX TEMP:  86;

EUFAULA        FAIR      71  67  87 CALM      29.96R
6HR MIN TEMP:  71; 6HR MAX TEMP:  87;

$$


USA.gov is the U.S. government's official web portal to all federal, state and local government web resources and services.